DW9686 Weather Reports


time (UTC)temp
F
wind
direction
speed
knots
gust
knots
rain 1hr
in
rain 24hr
in
rain mn
in
humidity
%
barometer
mb
20260505033036 73 335 2.6 4.3 0.00 0.00 0.00 48 1004.9
20260505031532 74 335 2.6 4.3 0.00 0.00 0.00 51 1004.7
20260505030032 76 336 1.7 3.5 0.00 0.00 0.00 43 1004.6
20260505024542 78 336 1.7 3.5 0.00 0.00 0.00 44 1004.6
20260505023044 82 0 0.0 0.0 0.00 0.00 0.00 37 1004.6
20260505021539 84 0 0.0 2.6 0.00 0.00 0.00 35 1004.7
20260505020033 85 336 0.9 3.5 0.00 0.00 0.00 31 1004.7
20260505014538 85 336 2.6 4.3 0.00 0.00 0.00 29 1004.8
20260505013033 86 336 3.5 7.0 0.00 0.00 0.00 27 1005.0
20260505011535 86 344 1.7 7.8 0.00 0.00 0.00 27 1005.0
20260505010036 86 333 1.7 7.0 0.00 0.00 0.00 26 1005.2
20260505004532 87 322 2.6 8.7 0.00 0.00 0.00 27 1005.2
20260505003032 87 349 4.3 9.6 0.00 0.00 0.00 26 1005.3
20260505001546 87 350 2.6 8.7 0.00 0.00 0.00 28 1005.3
20260505000039 87 352 2.6 5.2 0.00 0.00 0.00 27 1005.3
20260504234530 87 328 4.3 9.6 0.00 0.00 0.00 26 1005.4
20260504233032 87 309 6.1 11.3 0.00 0.00 0.00 23 1005.4
20260504231540 87 288 2.6 7.8 0.00 0.00 0.00 26 1005.5
20260504230033 87 5 2.6 7.8 0.00 0.00 0.00 25 1005.7
20260504224536 86 338 1.7 8.7 0.00 0.00 0.00 27 1005.7
20260504223032 86 352 1.7 7.8 0.00 0.00 0.00 27 1006.0
20260504221532 86 22 4.3 9.6 0.00 0.00 0.00 28 1006.2
20260504220036 85 352 3.5 7.8 0.00 0.00 0.00 27 1006.4
20260504214532 85 11 2.6 7.8 0.00 0.00 0.00 27 1006.6
20260504213032 84 330 4.3 9.6 0.00 0.00 0.00 29 1006.7
20260504211534 84 57 3.5 7.0 0.00 0.00 0.00 29 1006.8
20260504210050 83 331 2.6 5.2 0.00 0.00 0.00 31 1007.0
20260504204539 83 0 0.9 4.3 0.00 0.00 0.00 38 1007.2
20260504203035 82 0 1.7 5.2 0.00 0.00 0.00 36 1007.5
20260504201533 81 313 2.6 7.0 0.00 0.00 0.00 36 1007.6
20260504200033 81 360 1.7 8.7 0.00 0.00 0.00 38 1007.8
20260504194546 80 334 4.3 8.7 0.00 0.00 0.00 37 1007.9
20260504193035 79 350 4.3 11.3 0.00 0.00 0.00 36 1008.0
20260504191541 79 311 4.3 12.2 0.00 0.00 0.00 37 1008.1
20260504190043 78 323 4.3 9.6 0.00 0.00 0.00 39 1008.2
20260504184538 78 317 4.3 8.7 0.00 0.00 0.00 39 1008.4
20260504183030 77 299 4.3 8.7 0.00 0.00 0.00 41 1008.3
20260504181530 77 317 4.3 8.7 0.00 0.00 0.00 39 1008.4
20260504180040 77 320 3.5 8.7 0.00 0.00 0.00 41 1008.5
20260504174533 76 330 5.2 9.6 0.00 0.00 0.00 43 1008.4
20260504173036 75 338 4.3 9.6 0.00 0.00 0.00 43 1008.4
20260504171531 74 327 4.3 11.3 0.00 0.00 0.00 43 1008.5
20260504081532 63 0 0.0 0.0 0.00 0.00 0.00 54 1007.4
20260504044532 73 0 0.0 0.0 0.00 0.00 0.00 36 1007.7
20260504043031 73 0 0.0 0.0 0.00 0.00 0.00 37 1007.6
20260504041535 72 0 0.0 0.0 0.00 0.00 0.00 39 1007.6
20260504040033 72 0 0.0 0.0 0.00 0.00 0.00 36 1007.5
20260504034542 73 0 0.0 0.0 0.00 0.00 0.00 37 1007.5